| time (UTC) | temp C | wind direction | speed KPH | gust KPH | rain 1hr cm | rain 24hr cm | rain mn cm | humidity % | barometer mb |
| 20260504195413 | 14 | 350 | 9.7 | 14.5 | 0.00 | 0.05 | 0.00 | 87 | 1012.6 |
| 20260504194410 | 14 | 350 | 9.7 | 14.5 | 0.00 | 0.05 | 0.00 | 87 | 1012.6 |
| 20260504193410 | 14 | 350 | 9.7 | 14.5 | 0.00 | 0.05 | 0.00 | 87 | 1012.6 |
| 20260504192410 | 14 | 350 | 9.7 | 14.5 | 0.00 | 0.05 | 0.00 | 87 | 1012.6 |
| 20260504191410 | 14 | 350 | 9.7 | 14.5 | 0.00 | 0.05 | 0.00 | 87 | 1012.6 |
| 20260504185410 | 14 | 350 | 9.7 | 14.5 | 0.00 | 0.05 | 0.00 | 87 | 1012.6 |
| 20260504184413 | 14 | 350 | 9.7 | 14.5 | 0.00 | 0.05 | 0.00 | 87 | 1012.6 |
| 20260504183410 | 14 | 350 | 9.7 | 14.5 | 0.00 | 0.05 | 0.00 | 87 | 1012.6 |
| 20260504181409 | 14 | 350 | 9.7 | 14.5 | 0.00 | 0.05 | 0.00 | 87 | 1012.6 |
| 20260504180409 | 14 | 350 | 9.7 | 14.5 | 0.00 | 0.05 | 0.00 | 87 | 1012.6 |
| 20260504174410 | 14 | 350 | 9.7 | 14.5 | 0.00 | 0.05 | 0.00 | 87 | 1012.6 |
| 20260504173409 | 14 | 350 | 9.7 | 14.5 | 0.00 | 0.05 | 0.00 | 87 | 1012.6 |
| 20260504172410 | 14 | 350 | 9.7 | 14.5 | 0.00 | 0.05 | 0.00 | 87 | 1012.6 |
| 20260504170409 | 15 | 5 | 9.7 | 17.7 | 0.00 | 0.05 | 0.00 | 86 | 1012.6 |
| 20260504160409 | 16 | 44 | 8.0 | 16.1 | 0.00 | 0.05 | 0.00 | 85 | 1012.7 |
| 20260504140403 | 17 | 9 | 9.7 | 17.7 | 0.00 | 1.70 | 0.00 | 83 | 1012.7 |
| 20260504110403 | 16 | 92 | 3.2 | 9.7 | 0.00 | 2.03 | 0.00 | 84 | 1013.1 |
| 20260504081402 | 13 | 83 | 0.0 | 3.2 | 0.00 | 2.03 | 0.00 | 92 | 1013.0 |
| 20260504070408 | 12 | 34 | 1.6 | 4.8 | 0.00 | 2.03 | 0.00 | 96 | 1012.3 |
| 20260504050407 | 11 | 351 | 1.6 | 3.2 | 0.00 | 2.03 | 0.00 | 97 | 1011.8 |
| 20260504045407 | 11 | 317 | 1.6 | 4.8 | 0.00 | 2.03 | 0.00 | 97 | 1011.7 |
| 20260504044407 | 11 | 360 | 3.2 | 6.4 | 0.00 | 2.03 | 0.00 | 97 | 1011.6 |
| 20260504043410 | 11 | 333 | 3.2 | 6.4 | 0.00 | 2.03 | 0.00 | 97 | 1011.5 |
| 20260504042407 | 11 | 341 | 4.8 | 9.7 | 0.00 | 2.03 | 0.00 | 97 | 1011.6 |
| 20260504041407 | 12 | 331 | 4.8 | 9.7 | 0.00 | 2.03 | 0.00 | 97 | 1011.6 |
| 20260504040407 | 12 | 317 | 3.2 | 6.4 | 0.00 | 2.03 | 0.00 | 97 | 1011.6 |
| 20260504035407 | 12 | 325 | 3.2 | 6.4 | 0.00 | 2.03 | 0.00 | 97 | 1011.6 |
| 20260504033407 | 12 | 341 | 1.6 | 4.8 | 0.00 | 2.03 | 0.00 | 96 | 1011.6 |
| 20260504032407 | 12 | 342 | 1.6 | 3.2 | 0.00 | 2.03 | 0.00 | 96 | 1011.5 |
| 20260504031407 | 12 | 355 | 3.2 | 6.4 | 0.00 | 2.03 | 0.00 | 97 | 1011.5 |
| 20260504030407 | 12 | 340 | 4.8 | 8.0 | 0.00 | 2.03 | 0.00 | 97 | 1011.4 |
| 20260504025410 | 12 | 319 | 9.7 | 16.1 | 0.00 | 2.03 | 0.00 | 96 | 1011.5 |
| 20260504024407 | 12 | 350 | 6.4 | 12.9 | 0.00 | 2.03 | 0.00 | 97 | 1011.1 |
| 20260504023407 | 12 | 325 | 6.4 | 14.5 | 0.00 | 2.03 | 0.00 | 97 | 1011.1 |
| 20260504022407 | 12 | 315 | 6.4 | 11.3 | 0.00 | 2.03 | 0.00 | 97 | 1011.1 |
| 20260504020407 | 13 | 311 | 6.4 | 12.9 | 0.00 | 2.03 | 0.00 | 97 | 1010.9 |
| 20260504015407 | 13 | 317 | 6.4 | 12.9 | 0.00 | 2.03 | 0.00 | 97 | 1011.0 |
| 20260504013407 | 13 | 292 | 4.8 | 11.3 | 0.00 | 2.03 | 0.00 | 97 | 1010.8 |
| 20260504012407 | 13 | 310 | 1.6 | 4.8 | 0.00 | 2.03 | 0.00 | 97 | 1010.7 |
| 20260504011407 | 13 | 248 | 3.2 | 6.4 | 0.00 | 2.03 | 0.00 | 97 | 1010.8 |
| 20260504010407 | 13 | 258 | 3.2 | 4.8 | 0.00 | 2.03 | 0.00 | 97 | 1010.7 |
| 20260504005407 | 13 | 236 | 1.6 | 6.4 | 0.00 | 2.03 | 0.00 | 97 | 1010.6 |
| 20260504004407 | 13 | 236 | 1.6 | 4.8 | 0.00 | 2.03 | 0.00 | 97 | 1010.7 |
| 20260504003407 | 13 | 244 | 3.2 | 4.8 | 0.00 | 2.03 | 0.00 | 97 | 1010.6 |
| 20260504002407 | 13 | 228 | 1.6 | 3.2 | 0.00 | 2.03 | 0.00 | 97 | 1010.5 |
| 20260504001407 | 13 | 245 | 1.6 | 9.7 | 0.00 | 2.03 | 0.00 | 97 | 1010.6 |
| 20260504000408 | 13 | 277 | 3.2 | 8.0 | 0.00 | 2.03 | 0.00 | 97 | 1010.5 |
| 20260503235410 | 13 | 237 | 3.2 | 9.7 | 0.00 | 2.03 | 0.00 | 97 | 1010.5 |
| 20260503234407 | 13 | 230 | 0.0 | 3.2 | 0.00 | 2.03 | 0.00 | 97 | 1010.5 |
| 20260503231407 | 13 | 188 | 1.6 | 4.8 | 0.00 | 2.03 | 0.00 | 97 | 1010.4 |
| 20260503230407 | 13 | 209 | 1.6 | 4.8 | 0.00 | 2.03 | 0.00 | 96 | 1010.3 |
| 20260503225406 | 13 | 269 | 3.2 | 8.0 | 0.00 | 2.03 | 0.00 | 96 | 1010.4 |
| 20260503224407 | 13 | 184 | 1.6 | 8.0 | 0.00 | 2.03 | 0.00 | 96 | 1010.3 |
| 20260503223407 | 13 | 222 | 1.6 | 3.2 | 0.00 | 2.03 | 0.00 | 96 | 1010.3 |
| 20260503222407 | 13 | 227 | 1.6 | 6.4 | 0.00 | 2.03 | 0.00 | 96 | 1010.3 |
| 20260503221406 | 13 | 236 | 1.6 | 6.4 | 0.00 | 2.03 | 0.00 | 96 | 1010.2 |
| 20260503215410 | 13 | 232 | 3.2 | 6.4 | 0.00 | 2.03 | 2.03 | 96 | 1010.3 |
| 20260503214410 | 13 | 229 | 1.6 | 6.4 | 0.00 | 2.03 | 2.03 | 96 | 1010.3 |
| 20260503213410 | 13 | 192 | 1.6 | 6.4 | 0.00 | 2.03 | 2.03 | 96 | 1010.2 |
| 20260503212410 | 13 | 175 | 1.6 | 6.4 | 0.00 | 2.03 | 2.03 | 96 | 1010.2 |
| 20260503211413 | 14 | 173 | 3.2 | 8.0 | 0.00 | 2.03 | 2.03 | 96 | 1010.2 |
| 20260503210411 | 14 | 188 | 4.8 | 8.0 | 0.00 | 2.03 | 2.03 | 96 | 1010.1 |
| 20260503205413 | 14 | 180 | 4.8 | 9.7 | 0.00 | 2.03 | 2.03 | 96 | 1010.1 |
| 20260503203410 | 14 | 190 | 3.2 | 8.0 | 0.05 | 2.03 | 2.03 | 96 | 1010.2 |
| 20260503202410 | 14 | 201 | 3.2 | 11.3 | 0.05 | 2.03 | 2.03 | 96 | 1010.2 |
| 20260503201410 | 14 | 178 | 3.2 | 11.3 | 0.05 | 2.03 | 2.03 | 96 | 1010.2 |
| 20260503200410 | 14 | 242 | 3.2 | 9.7 | 0.05 | 2.03 | 2.03 | 96 | 1010.2 |